Location: Gorze? G�rny
(49.8500°N, 19.5000°E)
Time: 05:07:20
(UTC+00:00)

SL-24 R/B - Pass Details

Date: 13 May 2021
Orbit: 616 x 1346 km, 98.0° (Epoch: 20 June)

Event Time Altitude Azimuth Distance (km) Brightness Sun altitude
Exits shadow 23:14:15 43° 141° (SE) 916 4.6 -21.1°
Maximum altitude 23:15:35 69° 73° (ENE) 689 4.3 -21.0°
Drops below altitude 10° 23:19:49 10° 350° (N) 1,997 7.7 -20.9°
Sets 23:21:57 0° 349° (NNW) 2,904 8.7 -20.8°
